[Iaude] MPEC K34: 2024 FZ [a=1.91,e=0.45,i=8.2,H=20.16]
    mpec at cfa.harvard.edu 
    mpec at cfa.harvard.edu
       
    Mon May 20 10:11:06 EDT 2024
    
    
  
M.P.E.C. 2024-K34                                  Issued 2024 May 20, 14:09 UT
     The Minor Planet Electronic Circulars contain information on unusual
         minor planets, routine data on comets and natural satellites,
         and occasional editorial announcements.  They are published
    on behalf of Division F of the International Astronomical Union by the
          Minor Planet Center, Smithsonian Astrophysical Observatory,
                          Cambridge, MA 02138, U.S.A.
			  
             Prepared using the Tamkin Foundation Computer Network
                              MPC at CFA.HARVARD.EDU
            URL https://www.minorplanetcenter.net/    ISSN 1523-6714
                                    2024 FZ                                     
                           Revision to MPEC 2024-F39                            
Additional Observations:
     K24F00Z <C2016 04 10.09718410 56 28.876+28 08 54.98         21.54rVEK034W84
     K24F00Z <C2016 04 10.09913010 56 28.717+28 08 55.16               VEK034W84
     K24F00Z  C2016 04 29.35298 10 43 26.286+26 56 27.47         21.5 wLEK034F51
     K24F00Z  C2016 04 29.36551 10 43 26.129+26 56 20.64         21.4 wLEK034F51
     K24F00Z  C2016 04 29.37793 10 43 25.959+26 56 14.07         21.3 wLEK034F51
     K24F00Z <C2016 07 22.05014413 08 14.481-07 45 35.23               VEK034W84
     K24F00Z <C2016 07 22.05172813 08 14.803-07 45 39.51               VEK034W84
     K24F00Z <C2016 07 24.01047413 15 03.636-09 09 44.96               VEK034W84
Observer details:
F51 Pan-STARRS 1, Haleakala.  Observers B. Gibson, T. Goggia, N. Primak, A.
    Schultz, M. Willman.  Measurers K. Chambers, S. Chastel, L. Denneau, H.
    Flewelling, M. Huber, E. Lilly, E. Magnier, R. Wainscoat, C. Waters, R.
    Weryk.  1.8-m Ritchey-Chretien + CCD.
W84 Cerro Tololo-DECam.  Observers A. Dey, D. James, D. Lang, A. Walker.
    Measurers A. Coffinet, S. Deen.  4.0-m Reflector + CCD.
First and last observations above in comparison with prediction:
Residuals in seconds of arc (or zero decimals in degrees), reference and Delta-T
160410 W84  133-   42-    160724 W84  158-   12-    MPO811616   -29.5 days
Orbital elements:
2024 FZ                                             PHA, Earth MOID = 0.0285 AU
Epoch 2024 Mar. 31.0 TT = JDT 2460400.5                 Veres                   
M 332.36095              (2000.0)            P               Q                  
n   0.37463041     Peri.  181.46680     +0.02252734     +0.98952278             
a   1.9057563      Node    89.83903     -0.91579105     +0.07764284             
e   0.4518070      Incl.    8.19885     -0.40102279     -0.12172201             
P   2.63           H   20.16          G   0.15           U   0                  
Residuals in seconds of arc
160410 W84  0.1+  0.1+    240410 691  0.1-  0.0     240501 T12  0.0   0.0
160410 W84  0.0   0.1+    240410 F52  0.1-  0.0     240502 K74  0.1+  0.2+
160429 F51  0.1-  0.1+    240410 F52  0.0   0.0     240502 K74  0.0   0.2+
160429 F51  0.0   0.1-    240410 F52  0.0   0.1+    240502 K74  0.0   0.1+
160429 F51  0.1-  0.0     240411 C95  0.3+  0.1-    240502 T05  0.1+  0.4+
160722 W84  0.1-  0.1+    240411 C95  0.1-  0.2+    240502 T05  0.1+  0.2-
160722 W84  0.1-  0.1-    240411 G96  0.1-  0.1+    240502 T05  0.0   0.2+
160724 W84  0.0   0.0     240411 G96  0.0   0.1-    240502 T05  0.2+  0.2+
240316 F51  0.1+  0.1-    240411 G96  0.1-  0.1+    240503 M22  0.6+  0.2-
240316 F51  0.1-  0.2+    240411 G96  0.1+  0.2-    240503 M22  0.0   0.1+
240316 F51  0.0   0.0     240412 C95  0.6+  0.0     240503 M22  0.8+  0.1+
240316 F51  0.1+  0.1-    240412 B88  0.0   0.1+    240503 M22  0.2+  0.0
240316 L01  0.6-  1.2+    240412 C95  0.4+  0.2+    240503 A17  0.0   0.1-
240316 L01  0.8-  0.9+    240412 C95  0.7+  0.0     240503 A17  0.1-  0.1-
240316 L01  0.4-  0.4+    240412 B88  0.2+  0.2+    240503 A17  0.1-  0.0
240316 L01  0.0   0.0     240412 B88  0.0   0.2+    240507 U52  0.3-  0.2-
240317 033  0.1+  0.1+    240412 691  0.1+  0.3+    240507 U52  0.1-  0.0
240317 033  0.5+  0.2-    240412 691  0.0   0.3+    240507 U52  1.0+  0.3-
240317 033  0.3-  0.1-    240412 691  0.0   0.1+    240508 U52  0.1+  0.1-
240317 033  0.3-  0.0     240413 B88  0.2-  0.2-    240508 U52  0.1-  0.1-
240317 H21  0.1-  0.1-    240413 B88  0.1+  0.1+    240508 U52  0.0   0.2-
240317 H21  0.1+  0.2-    240413 B88  0.2-  0.1-    240508 G19  0.6-  0.0
240317 H21  0.4-  0.0     240414 033  0.3-  0.8-    240508 G19  0.2+  0.1+
240317 658  0.9-  0.0     240414 033  0.7-  0.2+    240508 G19  0.8+  0.8-
240317 658  0.7-  0.1-    240414 033  0.1-  0.1+    240509 K74  0.3+  0.4+
240317 658  0.2-  0.2-    240414 033  0.8+  0.3-    240509 K74  0.2+  0.2-
240317 658  0.2+  0.2-    240417 M49  0.2+  0.4-    240509 K19  0.4+  0.2+
240317 658  2.1+  0.1-    240417 M49  0.1+  0.2-    240509 K19  0.0   0.3-
240318 033  0.2+  0.5+    240417 M49  0.3+  0.1+    240509 K19  0.4-  0.1-
240318 033  0.1-  0.5+    240418 H21  0.1+  0.1-    240509 C95  0.1+  0.2-
240318 033  0.1+  0.6+    240418 H21  0.1+  0.0     240509 C95  0.1+  0.0
240318 033  0.5+  0.3+    240420 C95  0.1+  0.1-    240509 C95  0.2+  0.0
240319 T12  0.1+  0.1+    240420 C95  0.1+  0.1-    240510 B88  0.8+  0.2+
240319 T12  0.0   0.0     240420 C95  0.2+  0.1-    240510 B88  0.4+  0.3+
240322 I52  0.0   0.4+    240420 691  0.0   0.2+    240510 B88  0.8-  1.7+
240322 I52  0.4+  0.3+    240420 691  0.1+  0.2-    240511 B88  0.2+  0.1+
240322 I52  0.1+  0.0     240420 691  0.0   0.2+    240511 B88  0.0   0.2+
240322 I52  0.8+  0.2-    240421 L18  0.1-  0.3+    240511 B88  0.1+  0.3+
240402 474  0.4-  0.0     240421 L18  0.4+  0.1+    240511 G40  0.5-  0.1-
240402 474  0.3-  0.1-    240421 L18  0.1+  0.0     240511 G40  0.1+  0.0
240402 474  0.1-  0.2-    240425 595  0.3-  0.2-    240511 G40  0.2-  0.0
240402 474  0.7+  0.6-    240425 595  0.4-  0.1-    240513 K74  0.1+  0.2+
240405 691  0.1-  0.2-    240425 595  0.1+  0.0     240513 K74  0.3-  0.2-
240405 691  0.3+  0.2+    240428 L34  0.2-  0.6+    240513 K74  0.2-  0.5-
240405 691  0.3-  0.3-    240429 691  0.0   0.2+    240514 T05  0.0   0.6-
240406 033  0.6-  0.2-    240429 691  0.0   0.2+    240514 T05  0.0   0.2+
240406 033  0.5+  0.8-    240429 691  0.2+  0.2+    240514 T05  0.4-  0.4+
240407 033  0.2+  0.3-    240501 I52  0.3+  0.4-    240515 U52  0.7+  0.2-
240407 L34  0.1+  0.2+    240501 I52  0.2-  0.2-    240515 U52  0.1+  0.2-
240408 L34  0.3+  0.3+    240501 I52  0.1-  0.1+    240515 U52  1.0+  0.3+
240408 L34  0.1+  0.5+    240501 I52  0.2-  0.1+    240516 U52  0.5+  0.2-
240410 691  0.1+  0.2+    240501 T12  0.0   0.0     240516 U52  0.1+  0.4-
240410 691  0.1+  0.3+    240501 T12  0.1+  0.0
Ephemeris:
2024 FZ                  a,e,i = 1.91, 0.45, 8                   q = 1.0447
Date    TT    R. A. (2000) Decl.     Delta      r    Elong.  Phase     V
2024 04 20    16 50 39.4 +08 06 49   0.2699  1.2004   131.4    38.9    19.3
...
2024 05 05    18 05 40.7 +08 43 28   0.1922  1.1305   125.3    46.8    18.6
...
2024 05 13    19 02 12.6 +07 35 22   0.1639  1.1001   119.4    53.2    18.4
...
2024 05 19    19 52 29.4 +05 41 17   0.1505  1.0812   113.8    58.9    18.3
2024 05 20    20 01 21.5 +05 16 55   0.1490  1.0784   112.8    59.9    18.3
2024 05 21    20 10 19.1 +04 51 10   0.1477  1.0757   111.8    60.9    18.3
...
2024 05 27    21 04 44.6 +01 54 05   0.1445  1.0617   105.8    66.7    18.4
...
2024 06 04    22 12 45.5 -02 21 39   0.1516  1.0494    99.2    72.6    18.7
...
2024 06 19    23 47 01.9 -08 40 22   0.1881  1.0470    94.3    75.4    19.3
A. U. Tomatic                (C) Copyright 2024 MPC           M.P.E.C. 2024-K34
    
    
More information about the Iaude
mailing list